Time,TemperatureF,DewpointF,PressureIn,WindDirection,WindDirectionDegrees,WindSpeedMPH,WindSpeedGustMPH,Humidity,HourlyPrecipIn,Conditions,Clouds,dailyrainin,SoftwareType,DateUTC
2013-01-17 00:00:00,32.8,27.9,30.00,WSW,248,7.0,14.0,82,0.00,,---,0.00,VWS V14.01,2013-01-17 05:00:00,
2013-01-17 00:30:00,33.3,28.1,30.01,West,270,7.0,12.0,81,0.00,,---,0.00,VWS V14.01,2013-01-17 05:30:00,
2013-01-17 01:00:00,33.9,28.4,30.01,West,270,7.0,12.0,80,0.00,,---,0.00,VWS V14.01,2013-01-17 06:00:00,
2013-01-17 01:30:00,33.6,28.1,30.02,West,270,7.0,15.0,80,0.00,,---,0.00,VWS V14.01,2013-01-17 06:30:00,
2013-01-17 02:00:00,33.0,28.1,30.04,West,270,6.0,11.0,82,0.00,,---,0.00,VWS V14.01,2013-01-17 07:00:00,
2013-01-17 02:30:00,33.3,28.4,30.05,West,270,6.0,12.0,82,0.00,,---,0.00,VWS V14.01,2013-01-17 07:30:00,
2013-01-17 03:00:00,33.5,28.6,30.06,West,270,5.0,9.0,82,0.00,,---,0.00,VWS V14.01,2013-01-17 08:00:00,
2013-01-17 03:30:00,33.5,28.6,30.07,West,270,4.0,9.0,82,0.00,,---,0.00,VWS V14.01,2013-01-17 08:30:00,
2013-01-17 04:00:00,33.3,28.7,30.08,WSW,248,4.0,8.0,83,0.00,,---,0.00,VWS V14.01,2013-01-17 09:00:00,
2013-01-17 04:30:00,33.0,28.7,30.08,WSW,248,2.0,5.0,84,0.00,,---,0.00,VWS V14.01,2013-01-17 09:30:00,
2013-01-17 05:00:00,32.6,28.6,30.09,WSW,248,2.0,4.0,85,0.00,,---,0.00,VWS V14.01,2013-01-17 10:00:00,
2013-01-17 05:30:00,31.4,27.7,30.09,West,270,3.0,5.0,86,0.00,,---,0.00,VWS V14.01,2013-01-17 10:30:00,
2013-01-17 06:00:00,30.7,27.9,30.09,West,270,3.0,6.0,89,0.00,,---,0.00,VWS V14.01,2013-01-17 11:00:00,
2013-01-17 06:30:00,30.8,27.7,30.11,WNW,292,4.0,10.0,88,0.00,,---,0.00,VWS V14.01,2013-01-17 11:30:00,
2013-01-17 07:00:00,30.3,27.5,30.12,WNW,292,5.0,8.0,89,0.00,,---,0.00,VWS V14.01,2013-01-17 12:00:00,
2013-01-17 07:30:00,31.2,27.8,30.13,NW,315,6.0,14.0,87,0.00,,---,0.00,VWS V14.01,2013-01-17 12:30:00,
2013-01-17 08:00:00,31.2,27.5,30.14,NW,315,8.0,13.0,86,0.00,,---,0.00,VWS V14.01,2013-01-17 13:00:00,
2013-01-17 08:30:00,30.3,26.9,30.15,NW,315,7.0,14.0,87,0.00,,---,0.00,VWS V14.01,2013-01-17 13:30:00,
2013-01-17 09:00:00,30.2,26.8,30.16,NW,315,6.0,10.0,87,0.00,,---,0.00,VWS V14.01,2013-01-17 14:00:00,
2013-01-17 09:30:00,31.6,27.9,30.17,NW,315,5.0,9.0,86,0.00,,---,0.00,VWS V14.01,2013-01-17 14:30:00,
2013-01-17 10:00:00,33.3,28.7,30.19,NW,315,5.0,9.0,83,0.00,,---,0.00,VWS V14.01,2013-01-17 15:00:00,
2013-01-17 10:30:00,34.1,28.3,30.20,NW,315,7.0,12.0,79,0.00,,---,0.00,VWS V14.01,2013-01-17 15:30:00,
2013-01-17 11:00:00,34.9,27.5,30.20,NW,315,8.0,15.0,74,0.00,,---,0.00,VWS V14.01,2013-01-17 16:00:00,
2013-01-17 11:30:00,35.6,26.8,30.20,NW,315,8.0,15.0,70,0.00,,---,0.00,VWS V14.01,2013-01-17 16:30:00,
2013-01-17 12:00:00,36.1,26.2,30.19,NW,315,9.0,15.0,67,0.00,,---,0.00,VWS V14.01,2013-01-17 17:00:00,
2013-01-17 12:30:00,36.6,26.0,30.18,NW,315,8.0,15.0,65,0.00,,---,0.00,VWS V14.01,2013-01-17 17:30:00,
2013-01-17 13:00:00,36.3,25.3,30.17,NW,315,8.0,20.0,64,0.01,,---,0.01,VWS V14.01,2013-01-17 18:00:00,
2013-01-17 13:30:00,36.4,24.2,30.17,WNW,292,9.0,15.0,61,0.01,,---,0.01,VWS V14.01,2013-01-17 18:30:00,
2013-01-17 14:00:00,36.1,24.4,30.17,WNW,292,9.0,15.0,62,0.01,,---,0.01,VWS V14.01,2013-01-17 19:00:00,
2013-01-17 14:30:00,35.0,22.9,30.17,NW,315,10.0,15.0,61,0.00,,---,0.01,VWS V14.01,2013-01-17 19:30:00,
2013-01-17 15:00:00,33.9,21.9,30.17,NW,315,11.0,19.0,61,0.00,,---,0.01,VWS V14.01,2013-01-17 20:00:00,
2013-01-17 15:30:00,32.8,21.2,30.18,NW,315,11.0,17.0,62,0.00,,---,0.01,VWS V14.01,2013-01-17 20:30:00,
2013-01-17 16:00:00,31.5,20.4,30.20,WNW,292,11.0,20.0,63,0.00,,---,0.01,VWS V14.01,2013-01-17 21:00:00,
2013-01-17 16:30:00,30.6,21.0,30.21,WNW,292,10.0,19.0,67,0.00,,---,0.01,VWS V14.01,2013-01-17 21:30:00,
2013-01-17 17:00:00,28.6,19.0,30.22,NW,315,11.0,20.0,67,0.00,,---,0.01,VWS V14.01,2013-01-17 22:00:00,
2013-01-17 17:30:00,26.9,17.8,30.24,NW,315,11.0,20.0,68,0.00,,---,0.01,VWS V14.01,2013-01-17 22:30:00,
2013-01-17 18:00:00,25.4,16.7,30.26,NW,315,11.0,20.0,69,0.00,,---,0.01,VWS V14.01,2013-01-17 23:00:00,
2013-01-17 18:30:00,24.3,16.3,30.27,NW,315,10.0,20.0,71,0.00,,---,0.01,VWS V14.01,2013-01-17 23:30:00,
2013-01-17 19:00:00,23.6,16.2,30.29,NW,315,9.0,14.0,73,0.00,,---,0.01,VWS V14.01,2013-01-18 00:00:00,
2013-01-17 19:30:00,22.9,16.2,30.30,NW,315,6.0,12.0,75,0.00,,---,0.01,VWS V14.01,2013-01-18 00:30:00,
2013-01-17 20:00:00,22.3,15.9,30.32,NW,315,5.0,10.0,76,0.00,,---,0.01,VWS V14.01,2013-01-18 01:00:00,
2013-01-17 20:30:00,22.0,15.6,30.32,NW,315,4.0,8.0,76,0.00,,---,0.01,VWS V14.01,2013-01-18 01:30:00,
2013-01-17 21:00:00,21.9,15.5,30.32,NW,315,4.0,8.0,76,0.00,,---,0.01,VWS V14.01,2013-01-18 02:00:00,
2013-01-17 21:30:00,21.8,15.7,30.33,WNW,292,4.0,8.0,77,0.00,,---,0.01,VWS V14.01,2013-01-18 02:30:00,
2013-01-17 22:00:00,22.6,16.5,30.32,WNW,292,3.0,6.0,77,0.00,,---,0.01,VWS V14.01,2013-01-18 03:00:00,
2013-01-17 22:30:00,22.1,16.0,30.32,WSW,248,4.0,6.0,77,0.00,,---,0.01,VWS V14.01,2013-01-18 03:30:00,
2013-01-17 23:00:00,22.1,16.3,30.33,WSW,248,4.0,7.0,78,0.00,,---,0.01,VWS V14.01,2013-01-18 04:00:00,
2013-01-17 23:30:00,22.7,16.9,30.34,SW,225,6.0,10.0,78,0.00,,---,0.01,VWS V14.01,2013-01-18 04:30:00,